Location: Recife
(8.0585°S, 34.8848°W)
Time: 21:12:26
(UTC-03:00)

S-56A Canister/Altair - Pass Details

Date: 15 April 2026
Orbit: 633 x 2484 km, 38.9° (Epoch: 16 May)

Event Time Altitude Azimuth Distance (km) Brightness Sun altitude
Rises 15:17:03 0° 287° (WNW) 5,085 13.0 28.2°
Reaches altitude 10° 15:21:28 10° 276° (W) 3,754 12.8 27.1°
Maximum altitude 15:28:54 27° 222° (SW) 2,113 10.3 25.4°
Drops below altitude 10° 15:34:22 10° 165° (SSE) 2,683 10.1 24.1°
Sets 15:36:59 0° 152° (SSE) 3,424 10.5 23.4°
